QPF
0.00 0.00 0.00 0.00 0.00 0.00 0.00 0.00 0.00 0.00 0.00 0.00 0.00 0.00 0.00 0.00 0.00 0.00 0.00 0.00 0.00 0.00 0.00 0.00 0.00 0.00 0.00 0.00 0.00 0.00 0.00 0.00 0.00 0.00 0.00 0.00 0.00 0.00 0.00 0.00 0.01 0.02 0.10 0.00
0.00 0.00 0.00 0.00 0.00 0.00 0.00 0.00 0.00 0.00 0.00 0.00 0.00 0.00 0.00 0.00 0.00 0.00 0.00 0.00 0.00 0.00 0.00 0.00 0.00 0.00 0.00 0.00 0.00 0.00 0.00 0.00 0.00 0.00 0.00 0.00 0.02 0.00 0.00 0.00 0.00 0.02 0.10 0.00
0.00 0.00 0.00 0.00 0.00 0.00 0.00 0.00 0.00 0.00 0.00 0.00 0.00 0.00 0.00 0.00 0.00 0.00 0.00 0.00 0.00 0.00 0.00 0.00 0.00 0.00 0.00 0.00 0.00 0.00 0.00 0.00 0.00 0.00 0.00 0.00 0.00 0.00 0.00 0.00 0.00 0.00 0.00 0.00
0.00 0.00 0.00 0.00 0.00 0.00 0.00 0.00 0.00 0.00 0.00 0.00 0.00 0.00 0.00 0.00 0.00 0.00 0.00 0.00 0.00 0.00 0.00 0.00 0.00 0.00 0.00 0.00 0.00 0.00 0.00 0.00 0.00 0.00 0.00 0.00 0.00 0.00 0.00 0.00 0.00 0.00 0.00 0.00
0.00 0.00 0.00 0.00 0.00 0.00 0.00 0.00 0.00 0.00 0.00 0.00 0.00 0.00 0.00 0.00 0.00 0.00 0.00 0.00 0.00 0.00 0.00 0.00 0.00 0.00 0.01 0.00 0.00 0.00 0.00 0.00 0.00 0.00 0.00 0.00 0.00 0.00 0.00 0.00 0.00 0.00 0.00 0.00
0.00 0.00 0.00 0.00 0.00 0.00 0.00 0.00 0.00 0.00 0.00 0.00 0.00 0.00 0.00 0.00 0.00 0.00 0.00 0.00 0.00 0.00 0.00 0.00 0.00 0.00 0.01 0.00 0.00 0.00 0.00 0.00 0.00 0.00 0.00 0.00 0.00 0.00 0.00 0.00 0.00 0.00 0.02 0.02
0.00 0.00 0.00 0.00 0.00 0.00 0.00 0.00 0.00 0.00 0.00 0.00 0.00 0.00 0.00 0.00 0.00 0.00 0.00 0.00 0.00 0.00 0.00 0.00 0.00 0.01 0.01 0.00 0.00 0.00 0.00 0.00 0.00 0.00 0.00 0.02 0.01 0.00 0.00 0.00 0.04 0.03 0.02 0.01
0.00 0.00 0.00 0.00 0.00 0.00 0.00 0.00 0.00 0.00 0.00 0.00 0.00 0.00 0.00 0.00 0.00 0.00 0.00 0.00 0.00 0.00 0.00 0.00 0.02 0.06 0.00 0.01 0.00 0.01 0.01 0.00 0.00 0.00 0.00 0.00 0.00 0.00 0.00 0.03 0.09 0.09 0.02 0.02
0.00 0.00 0.00 0.00 0.00 0.00 0.00 0.00 0.00 0.00 0.00 0.00 0.00 0.00 0.00 0.00 0.00 0.00 0.00 0.00 0.00 0.00 0.00 0.00 0.07 0.04 0.00 0.00 0.01 0.00 0.02 0.01 0.00 0.00 0.05 0.03 0.00 0.00 0.00 0.02 0.11 0.04 0.03 0.00
0.00 0.00 0.00 0.00 0.00 0.00 0.00 0.00 0.00 0.00 0.00 0.00 0.00 0.00 0.00 0.00 0.00 0.00 0.00 0.00 0.00 0.00 0.00 0.04 0.19 0.07 0.00 0.00 0.00 0.00 0.00 0.01 0.00 0.00 0.06 0.06 0.00 0.00 0.00 0.00 0.10 0.02 0.00 0.00
0.00 0.00 0.00 0.00 0.00 0.00 0.00 0.00 0.00 0.00 0.00 0.00 0.00 0.00 0.00 0.00 0.00 0.00 0.00 0.00 0.00 0.00 0.00 0.02 0.05 0.10 0.02 0.00 0.00 0.00 0.00 0.00 0.00 0.00 0.00 0.01 0.00 0.01 0.00 0.00 0.01 0.00 0.00 0.00
0.00 0.00 0.00 0.00 0.00 0.00 0.00 0.00 0.00 0.00 0.00 0.00 0.00 0.00 0.00 0.00 0.00 0.00 0.00 0.00 0.00 0.00 0.00 0.00 0.03 0.12 0.04 0.00 0.00 0.00 0.00 0.00 0.00 0.00 0.00 0.00 0.00 0.00 0.00 0.00 0.00 0.00 0.00 0.00
0.00 0.00 0.00 0.00 0.00 0.00 0.00 0.00 0.00 0.00 0.00 0.00 0.00 0.00 0.00 0.00 0.00 0.00 0.00 0.00 0.00 0.00 0.00 0.00 0.00 0.01 0.01 0.00 0.01 0.04 0.06 0.04 0.00 0.00 0.00 0.00 0.01 0.00 0.00 0.00 0.00 0.00 0.00 0.00
0.00 0.00 0.00 0.00 0.00 0.00 0.00 0.00 0.00 0.00 0.00 0.00 0.00 0.00 0.00 0.00 0.00 0.00 0.00 0.00 0.00 0.00 0.00 0.00 0.00 0.00 0.00 0.01 0.01 0.08 0.16 0.20 0.12 0.08 0.03 0.01 0.02 0.04 0.01 0.00 0.00 0.00 0.00 0.00
0.00 0.00 0.00 0.00 0.00 0.00 0.00 0.00 0.00 0.00 0.00 0.00 0.00 0.00 0.00 0.00 0.00 0.00 0.00 0.00 0.00 0.00 0.01 0.00 0.00 0.00 0.01 0.03 0.02 0.01 0.03 0.13 0.22 0.19 0.08 0.00 0.09 0.08 0.07 0.01 0.00 0.00 0.00 0.00
0.00 0.00 0.00 0.00 0.00 0.00 0.00 0.00 0.00 0.00 0.00 0.00 0.00 0.00 0.00 0.00 0.00 0.00 0.00 0.01 0.01 0.01 0.01 0.01 0.01 0.00 0.00 0.02 0.03 0.02 0.05 0.11 0.16 0.11 0.02 0.03 0.11 0.14 0.09 0.11 0.00 0.00 0.00 0.00
0.00 0.00 0.00 0.00 0.00 0.00 0.00 0.00 0.00 0.00 0.00 0.00 0.00 0.00 0.00 0.00 0.00 0.00 0.01 0.02 0.02 0.01 0.01 0.01 0.02 0.02 0.00 0.00 0.00 0.01 0.02 0.09 0.05 0.03 0.08 0.11 0.15 0.21 0.17 0.30 0.06 0.00 0.00 0.00
0.00 0.00 0.00 0.00 0.00 0.00 0.00 0.00 0.00 0.00 0.00 0.00 0.00 0.00 0.00 0.00 0.01 0.01 0.02 0.02 0.02 0.01 0.01 0.01 0.01 0.00 0.00 0.00 0.00 0.00 0.00 0.02 0.04 0.07 0.04 0.23 0.20 0.12 0.22 0.27 0.06 0.00 0.00 0.00
0.00 0.00 0.00 0.00 0.00 0.00 0.00 0.00 0.00 0.00 0.00 0.00 0.00 0.00 0.00 0.01 0.01 0.01 0.01 0.01 0.02 0.02 0.01 0.01 0.00 0.00 0.00 0.00 0.00 0.00 0.00 0.00 0.01 0.01 0.05 0.20 0.27 0.27 0.27 0.09 0.10 0.13 0.06 0.00
0.00 0.00 0.00 0.00 0.00 0.00 0.00 0.00 0.00 0.00 0.00 0.00 0.00 0.00 0.00 0.00 0.00 0.01 0.01 0.01 0.01 0.01 0.01 0.01 0.01 0.00 0.00 0.00 0.00 0.00 0.00 0.00 0.00 0.00 0.01 0.08 0.18 0.17 0.03 0.30 0.21 0.12 0.08 0.05
0.00 0.00 0.00 0.00 0.00 0.00 0.00 0.00 0.00 0.00 0.00 0.00 0.01 0.01 0.00 0.00 0.00 0.00 0.00 0.00 0.00 0.00 0.00 0.00 0.00 0.00 0.00 0.00 0.00 0.00 0.00 0.00 0.00 0.00 0.00 0.04 0.17 0.14 0.08 0.31 0.30 0.04 0.02 0.04
0.00 0.00 0.00 0.00 0.00 0.00 0.00 0.00 0.00 0.00 0.00 0.00 0.00 0.00 0.00 0.00 0.00 0.00 0.00 0.00 0.00 0.00 0.00 0.00 0.00 0.00 0.00 0.00 0.00 0.00 0.00 0.00 0.00 0.00 0.00 0.02 0.09 0.14 0.10 0.22 0.36 0.34 0.11 0.05
0.00 0.00 0.00 0.00 0.00 0.00 0.00 0.00 0.00 0.00 0.00 0.00 0.00 0.00 0.00 0.00 0.00 0.00 0.00 0.00 0.00 0.00 0.00 0.00 0.00 0.00 0.00 0.00 0.00 0.00 0.00 0.00 0.00 0.00 0.00 0.00 0.00 0.01 0.04 0.09 0.26 0.40 0.43 0.20
0.00 0.00 0.00 0.00 0.00 0.00 0.00 0.00 0.00 0.00 0.00 0.00 0.00 0.00 0.00 0.00 0.00 0.00 0.00 0.00 0.00 0.00 0.00 0.00 0.00 0.00 0.00 0.00 0.00 0.00 0.00 0.00 0.00 0.00 0.00 0.00 0.00 0.00 0.01 0.19 0.23 0.35 0.41 0.24
0.00 0.00 0.00 0.00 0.00 0.00 0.00 0.00 0.00 0.00 0.00 0.00 0.00 0.00 0.00 0.00 0.00 0.00 0.00 0.00 0.00 0.00 0.00 0.00 0.00 0.00 0.00 0.00 0.00 0.00 0.00 0.00 0.00 0.00 0.00 0.00 0.00 0.00 0.00 0.10 0.18 0.33 0.39 0.36
0.00 0.00 0.00 0.00 0.00 0.00 0.00 0.00 0.00 0.00 0.00 0.00 0.00 0.00 0.00 0.00 0.00 0.00 0.00 0.00 0.00 0.00 0.00 0.00 0.00 0.00 0.00 0.00 0.00 0.00 0.00 0.00 0.00 0.00 0.00 0.00 0.00 0.00 0.00 0.02 0.07 0.11 0.22 0.41
MSLP
1006.63 1007.46 1007.63 1007.45 1007.66 1007.52 1007.21 1006.70 1005.97 1004.36 1003.89 1003.91 1004.10 1004.33 1003.84 1004.33 1004.57 1004.80 1005.14 1005.47 1005.71 1005.78 1005.98 1006.66 1007.30 1008.00 1008.80 1009.58 1010.12 1010.60 1011.39 1012.01 1012.68 1013.42 1013.90 1014.30 1014.32 1014.29 1014.31 1014.20 1014.21 1014.49 1014.90 1015.29
1007.37 1007.41 1006.51 1006.76 1006.89 1006.96 1006.65 1006.23 1005.35 1004.29 1003.80 1004.19 1004.03 1004.11 1003.44 1003.56 1003.46 1003.33 1003.72 1004.38 1004.61 1005.28 1005.75 1006.18 1006.99 1007.68 1008.31 1008.99 1009.67 1010.53 1011.14 1011.80 1012.26 1012.88 1013.41 1013.78 1013.97 1014.17 1014.12 1014.05 1014.01 1014.17 1014.49 1015.00
1007.62 1006.39 1006.30 1006.61 1005.88 1006.00 1005.76 1005.49 1005.05 1004.96 1004.61 1004.39 1004.62 1004.25 1003.68 1002.77 1002.56 1002.20 1002.67 1002.83 1003.59 1004.19 1004.96 1005.81 1006.56 1007.18 1008.05 1008.91 1009.43 1010.11 1010.71 1011.37 1011.90 1012.61 1013.35 1013.96 1014.24 1014.34 1014.28 1014.23 1014.16 1014.26 1014.42 1014.82
1007.17 1006.08 1006.00 1005.92 1005.74 1005.44 1005.27 1004.69 1004.87 1005.12 1005.55 1005.68 1005.42 1005.70 1004.14 1003.36 1002.67 1002.32 1002.56 1002.99 1003.05 1003.79 1004.60 1005.37 1006.25 1006.99 1007.63 1008.37 1009.24 1009.96 1010.61 1011.18 1011.61 1012.27 1013.08 1013.59 1013.83 1014.15 1014.01 1014.08 1014.11 1014.30 1014.38 1014.60
1006.49 1005.86 1005.51 1005.34 1004.75 1004.65 1004.56 1004.46 1005.25 1005.67 1006.41 1006.61 1006.77 1006.64 1004.72 1003.89 1003.39 1002.93 1002.84 1003.02 1003.27 1003.43 1004.02 1004.82 1005.44 1006.48 1007.31 1008.15 1008.77 1009.36 1010.10 1010.85 1011.42 1011.96 1012.30 1013.04 1013.50 1013.66 1013.70 1014.07 1014.33 1014.49 1014.74 1014.61
1006.00 1005.33 1004.97 1004.31 1003.87 1003.98 1004.42 1005.06 1006.13 1007.05 1007.71 1008.00 1007.39 1007.26 1005.77 1005.12 1004.36 1003.67 1003.57 1003.51 1002.96 1003.28 1003.76 1004.88 1005.91 1006.76 1007.46 1008.12 1008.96 1009.32 1009.87 1010.31 1010.72 1011.58 1012.02 1012.29 1012.68 1013.29 1013.69 1013.95 1014.23 1014.44 1014.59 1014.70
1006.01 1005.09 1004.07 1003.69 1003.92 1004.12 1004.89 1006.59 1007.88 1008.98 1009.50 1009.24 1007.96 1007.66 1007.68 1005.95 1004.70 1004.19 1004.01 1003.76 1003.21 1003.48 1005.04 1006.36 1007.12 1007.66 1008.38 1008.77 1008.69 1009.28 1009.73 1010.12 1010.45 1010.66 1011.43 1011.76 1011.99 1012.59 1013.10 1013.33 1013.64 1013.99 1014.24 1014.35
1006.71 1005.57 1004.38 1003.82 1003.95 1004.47 1005.59 1007.03 1008.47 1009.72 1010.46 1009.60 1008.17 1007.90 1007.42 1006.69 1005.81 1004.78 1004.34 1004.42 1004.32 1004.81 1005.50 1006.49 1007.24 1007.48 1007.41 1008.14 1008.73 1009.59 1009.78 1009.83 1010.23 1010.43 1010.73 1011.40 1011.70 1012.00 1012.42 1012.84 1013.09 1013.23 1013.48 1013.68
1006.64 1006.04 1004.70 1004.03 1003.84 1004.41 1005.99 1007.21 1008.14 1009.51 1010.62 1010.36 1009.00 1008.16 1007.34 1006.98 1006.20 1005.58 1005.29 1004.99 1005.55 1005.68 1005.86 1006.60 1007.40 1008.00 1008.07 1008.72 1008.67 1009.00 1009.49 1009.90 1010.17 1010.01 1010.47 1010.86 1011.30 1011.58 1011.75 1012.26 1012.69 1012.74 1013.13 1013.33
1006.31 1006.51 1005.64 1004.90 1004.49 1005.29 1005.90 1007.33 1008.63 1010.02 1011.17 1011.17 1009.89 1008.77 1008.03 1007.73 1007.48 1007.16 1006.82 1006.64 1006.60 1006.67 1007.34 1008.16 1007.75 1008.48 1008.73 1008.55 1007.81 1007.84 1008.61 1009.02 1009.60 1010.07 1010.29 1010.50 1010.79 1011.07 1011.18 1011.69 1012.22 1012.28 1012.36 1012.79
1006.34 1006.97 1006.79 1006.31 1006.58 1006.68 1007.13 1008.20 1009.44 1010.83 1011.48 1011.68 1010.94 1009.51 1008.10 1008.14 1008.25 1008.21 1007.68 1007.27 1007.30 1007.57 1007.54 1008.08 1008.32 1008.44 1007.28 1007.67 1008.22 1008.42 1007.94 1008.40 1008.88 1009.32 1009.97 1010.09 1010.16 1010.45 1010.86 1011.16 1011.44 1011.61 1012.03 1012.51
1006.89 1008.08 1008.49 1008.13 1007.39 1007.51 1007.88 1009.11 1010.01 1011.54 1011.91 1011.84 1011.31 1009.46 1008.07 1007.94 1008.28 1008.63 1008.49 1008.26 1008.34 1008.12 1008.50 1008.45 1008.28 1008.09 1007.93 1007.81 1008.43 1008.56 1008.49 1008.32 1008.41 1008.70 1009.42 1009.65 1009.71 1010.16 1010.60 1010.82 1010.96 1011.40 1011.85 1012.22
1007.19 1008.79 1009.65 1009.06 1008.91 1008.42 1009.01 1009.67 1010.20 1011.21 1011.70 1011.72 1011.55 1009.60 1008.40 1008.34 1008.16 1009.72 1009.32 1008.83 1008.81 1008.79 1008.86 1008.80 1008.70 1008.34 1008.42 1008.78 1009.49 1008.79 1008.56 1008.19 1008.46 1008.69 1009.11 1009.44 1009.29 1009.76 1010.09 1010.35 1010.51 1011.05 1011.32 1011.73
1007.53 1009.66 1010.08 1009.98 1009.61 1009.61 1009.84 1010.04 1010.33 1011.19 1011.91 1011.76 1011.23 1010.05 1009.17 1009.05 1009.42 1009.56 1010.00 1009.63 1009.37 1009.41 1009.47 1009.57 1009.79 1009.55 1009.44 1009.03 1008.54 1007.92 1008.03 1007.61 1008.23 1008.12 1008.65 1009.06 1009.07 1009.07 1009.54 1009.95 1010.17 1010.45 1010.91 1011.21
1008.94 1010.34 1010.59 1010.28 1009.98 1009.88 1009.80 1010.11 1010.34 1010.98 1011.27 1011.55 1010.90 1010.58 1010.19 1010.08 1010.04 1009.89 1010.27 1010.39 1010.19 1010.10 1010.08 1009.91 1009.89 1009.75 1009.40 1009.26 1008.75 1008.32 1007.64 1007.48 1007.42 1007.43 1007.53 1008.00 1008.31 1008.63 1008.96 1009.51 1009.80 1009.95 1010.23 1010.72
1010.01 1010.85 1011.19 1010.99 1010.34 1010.06 1009.86 1009.86 1010.04 1010.75 1011.12 1011.06 1011.10 1011.18 1010.94 1010.61 1010.56 1011.12 1011.57 1011.30 1010.93 1010.70 1010.54 1010.41 1010.20 1009.95 1009.79 1009.50 1009.07 1008.86 1008.62 1008.06 1007.60 1007.15 1007.12 1007.09 1007.80 1008.04 1008.76 1008.93 1009.23 1009.62 1009.82 1010.03
1010.90 1011.55 1012.49 1012.13 1011.22 1010.66 1010.45 1010.08 1010.45 1011.17 1011.47 1011.42 1011.61 1012.02 1011.74 1011.74 1011.87 1012.19 1012.42 1012.35 1011.89 1011.36 1011.23 1011.14 1010.66 1010.19 1010.01 1009.49 1008.99 1008.60 1008.36 1008.16 1007.72 1007.61 1007.13 1007.16 1007.63 1008.08 1008.38 1008.71 1008.81 1008.96 1009.31 1009.61
1011.20 1012.23 1012.81 1013.18 1012.37 1011.95 1011.09 1010.39 1010.41 1011.41 1012.12 1012.09 1012.17 1012.38 1012.40 1012.37 1012.37 1012.37 1012.43 1012.34 1012.15 1011.92 1011.38 1011.18 1010.85 1010.20 1009.74 1009.22 1009.06 1008.28 1008.05 1008.06 1007.93 1007.82 1007.27 1007.01 1006.87 1007.31 1007.54 1007.87 1007.96 1008.14 1008.37 1008.63
1011.27 1012.29 1013.45 1013.78 1013.34 1012.50 1011.92 1011.42 1011.29 1011.45 1012.58 1012.77 1012.90 1012.88 1012.77 1012.60 1012.41 1012.17 1011.88 1011.91 1011.93 1011.85 1011.78 1011.24 1010.36 1009.98 1009.67 1009.36 1008.84 1008.45 1008.55 1008.51 1008.21 1007.84 1007.25 1006.80 1006.99 1006.79 1007.08 1006.91 1007.05 1007.31 1007.71 1007.96
1012.16 1012.53 1013.19 1014.34 1013.95 1013.19 1012.51 1011.77 1011.63 1012.03 1012.78 1012.96 1013.19 1013.26 1013.20 1012.97 1013.09 1012.34 1011.50 1011.30 1011.01 1010.90 1010.61 1010.47 1010.43 1010.01 1009.87 1009.47 1009.29 1009.02 1008.58 1008.24 1008.13 1007.64 1007.24 1006.87 1006.72 1006.23 1006.11 1006.23 1006.17 1006.50 1006.69 1006.79
1013.36 1013.86 1014.31 1014.46 1014.13 1013.68 1013.02 1012.47 1012.06 1013.16 1014.19 1013.68 1013.63 1013.68 1013.55 1013.63 1013.06 1012.08 1011.44 1011.18 1011.05 1010.63 1010.38 1010.01 1009.81 1009.51 1009.24 1009.14 1009.23 1009.17 1008.87 1008.51 1007.94 1007.62 1007.01 1006.57 1006.23 1005.64 1005.58 1005.62 1005.38 1005.52 1005.72 1006.30
1014.44 1014.98 1015.23 1015.26 1014.87 1014.35 1013.57 1013.15 1013.48 1014.40 1014.22 1014.09 1013.93 1013.85 1013.69 1013.24 1012.60 1012.00 1011.50 1011.15 1010.85 1010.52 1010.16 1009.94 1009.53 1009.21 1008.91 1008.78 1008.70 1008.60 1008.23 1007.25 1007.04 1006.93 1006.77 1006.15 1005.75 1005.47 1005.26 1005.31 1004.84 1004.96 1005.16 1005.32
1014.86 1014.96 1015.21 1015.58 1015.09 1014.37 1014.07 1013.94 1013.88 1014.03 1014.15 1013.96 1013.75 1013.41 1013.21 1012.72 1012.07 1011.49 1010.99 1010.62 1010.20 1009.90 1009.62 1009.35 1009.13 1008.84 1008.49 1008.19 1008.18 1008.22 1007.62 1007.09 1006.81 1006.50 1006.29 1005.81 1005.39 1005.20 1005.16 1005.11 1004.82 1004.91 1004.83 1005.03
1014.92 1014.87 1015.35 1015.53 1014.87 1014.58 1014.24 1013.96 1013.94 1013.77 1013.83 1013.54 1013.33 1013.04 1012.62 1012.06 1011.47 1010.86 1010.32 1009.91 1009.56 1009.24 1008.99 1008.79 1008.42 1008.11 1007.88 1007.59 1007.45 1007.21 1007.05 1006.82 1006.57 1005.95 1005.58 1005.31 1004.97 1004.80 1004.93 1004.58 1004.06 1003.74 1004.50 1004.70
1015.29 1015.22 1015.50 1015.64 1015.00 1014.65 1014.02 1013.81 1013.55 1013.27 1013.10 1012.89 1012.50 1012.23 1011.87 1011.40 1010.83 1010.31 1009.78 1009.27 1008.64 1008.32 1008.06 1007.84 1007.61 1007.28 1007.07 1006.86 1006.79 1006.72 1006.48 1006.39 1006.14 1005.64 1005.01 1004.71 1004.70 1004.63 1004.54 1004.45 1004.20 1003.84 1004.53 1004.77
1015.22 1015.05 1015.32 1015.25 1014.75 1014.77 1014.02 1013.17 1012.88 1012.79 1012.21 1011.75 1011.47 1011.08 1010.76 1010.46 1010.00 1009.45 1008.81 1008.27 1007.85 1007.38 1007.05 1006.94 1006.70 1006.40 1006.11 1005.96 1005.81 1005.69 1005.72 1005.72 1005.65 1005.32 1004.70 1004.25 1004.19 1004.05 1004.16 1004.20 1004.41 1003.68 1003.04 1002.35
Thickness
5811 5789 5776 5789 5791 5793 5790 5779 5778 5811 5825 5818 5807 5808 5823 5827 5830 5826 5823 5825 5826 5826 5829 5825 5818 5813 5806 5799 5793 5790 5783 5779 5774 5766 5759 5758 5758 5758 5758 5762 5764 5764 5760 5757
5789 5775 5805 5807 5802 5793 5791 5784 5789 5810 5823 5811 5816 5811 5826 5831 5833 5841 5837 5832 5835 5830 5823 5824 5819 5814 5808 5801 5797 5789 5783 5778 5775 5770 5764 5762 5761 5760 5761 5762 5764 5765 5762 5759
5779 5799 5813 5803 5802 5794 5794 5790 5796 5795 5809 5815 5809 5795 5814 5837 5844 5849 5849 5850 5846 5838 5828 5824 5820 5817 5810 5802 5798 5792 5786 5781 5777 5771 5764 5760 5759 5757 5757 5759 5761 5762 5761 5759
5789 5810 5809 5801 5795 5800 5787 5815 5811 5805 5789 5765 5804 5753 5800 5820 5830 5846 5843 5840 5843 5839 5835 5829 5823 5816 5812 5807 5801 5792 5784 5779 5778 5774 5765 5760 5757 5754 5757 5758 5760 5759 5759 5758
5787 5801 5800 5793 5804 5811 5798 5820 5809 5805 5785 5784 5779 5762 5789 5815 5823 5833 5838 5837 5838 5843 5838 5832 5830 5823 5817 5811 5804 5799 5790 5781 5776 5774 5772 5764 5757 5758 5758 5756 5755 5753 5753 5754
5797 5818 5814 5809 5824 5823 5818 5806 5789 5776 5765 5744 5770 5765 5774 5791 5812 5820 5826 5833 5843 5843 5842 5834 5827 5822 5814 5809 5800 5798 5790 5786 5783 5773 5770 5769 5764 5758 5756 5754 5752 5752 5750 5748
5789 5802 5820 5828 5810 5815 5802 5769 5731 5734 5728 5738 5762 5764 5766 5789 5807 5817 5820 5828 5840 5844 5828 5816 5810 5807 5801 5797 5800 5794 5791 5785 5784 5782 5772 5770 5770 5763 5757 5756 5754 5751 5748 5746
5760 5760 5806 5822 5812 5798 5794 5771 5731 5731 5722 5737 5766 5759 5764 5795 5808 5819 5825 5825 5829 5826 5825 5818 5811 5806 5811 5808 5797 5787 5792 5785 5782 5781 5779 5771 5769 5766 5762 5757 5755 5753 5748 5747
5757 5768 5811 5823 5825 5814 5790 5765 5779 5742 5735 5732 5750 5772 5789 5795 5800 5810 5816 5818 5812 5816 5819 5813 5804 5802 5800 5798 5796 5792 5789 5783 5779 5781 5779 5775 5771 5768 5766 5761 5756 5754 5748 5749
5787 5764 5800 5808 5816 5806 5793 5792 5752 5738 5732 5731 5737 5750 5753 5776 5778 5787 5793 5797 5800 5806 5803 5797 5801 5791 5791 5794 5801 5804 5796 5792 5784 5777 5776 5777 5773 5771 5768 5764 5757 5756 5756 5753
5790 5775 5781 5793 5778 5776 5768 5756 5750 5739 5727 5715 5710 5735 5771 5774 5775 5775 5783 5790 5792 5792 5794 5791 5793 5792 5802 5799 5798 5792 5800 5793 5788 5783 5773 5774 5774 5771 5766 5764 5760 5757 5754 5753
5789 5759 5749 5770 5787 5786 5778 5761 5739 5716 5724 5716 5711 5726 5788 5784 5776 5771 5777 5782 5783 5785 5785 5787 5791 5794 5793 5795 5791 5791 5792 5788 5790 5785 5776 5774 5773 5770 5765 5764 5762 5758 5753 5753
5788 5746 5727 5743 5757 5766 5751 5752 5748 5725 5713 5718 5708 5721 5778 5775 5779 5755 5760 5770 5773 5776 5777 5782 5784 5788 5788 5784 5771 5782 5781 5790 5786 5781 5776 5770 5773 5769 5766 5765 5765 5759 5757 5756
5780 5739 5736 5719 5736 5743 5741 5742 5741 5724 5700 5709 5710 5730 5757 5759 5755 5757 5753 5758 5764 5765 5764 5765 5765 5769 5770 5777 5782 5788 5783 5770 5782 5782 5776 5770 5770 5771 5770 5767 5766 5764 5759 5757
5763 5737 5739 5738 5741 5741 5739 5737 5737 5726 5720 5708 5722 5725 5735 5740 5742 5747 5743 5745 5750 5751 5753 5754 5755 5761 5766 5768 5775 5780 5786 5782 5783 5767 5777 5777 5777 5774 5771 5767 5766 5766 5763 5759
5746 5730 5736 5734 5738 5736 5732 5734 5729 5723 5719 5716 5717 5716 5726 5736 5737 5729 5723 5725 5730 5733 5737 5741 5744 5745 5749 5752 5759 5765 5768 5772 5778 5779 5780 5786 5777 5775 5770 5768 5766 5764 5764 5761
5732 5714 5700 5695 5716 5716 5703 5721 5714 5707 5707 5709 5702 5704 5713 5712 5714 5710 5709 5706 5710 5718 5720 5720 5726 5729 5730 5737 5743 5755 5759 5761 5768 5769 5777 5778 5774 5770 5767 5765 5763 5763 5761 5761
5713 5706 5692 5683 5694 5674 5699 5713 5711 5693 5692 5696 5698 5699 5700 5702 5701 5700 5700 5701 5701 5702 5709 5712 5713 5719 5725 5730 5734 5742 5748 5749 5753 5757 5766 5770 5773 5771 5769 5767 5765 5766 5764 5761
5722 5700 5681 5675 5665 5684 5686 5694 5694 5692 5677 5682 5679 5682 5686 5688 5691 5692 5696 5693 5692 5693 5692 5697 5709 5715 5716 5719 5724 5730 5729 5732 5738 5745 5754 5762 5764 5766 5764 5767 5766 5764 5762 5760
5707 5698 5690 5663 5669 5658 5677 5690 5694 5684 5652 5675 5673 5668 5667 5670 5656 5665 5684 5685 5687 5687 5689 5690 5691 5696 5698 5702 5708 5712 5716 5723 5726 5736 5742 5751 5755 5762 5764 5764 5766 5764 5764 5764
5678 5673 5671 5661 5660 5660 5671 5674 5678 5647 5639 5654 5655 5652 5651 5646 5649 5665 5671 5671 5672 5676 5678 5682 5684 5686 5690 5692 5694 5698 5703 5706 5713 5724 5731 5740 5747 5756 5760 5760 5764 5765 5764 5760
5669 5659 5651 5645 5650 5643 5663 5663 5653 5637 5640 5642 5643 5641 5639 5641 5648 5654 5656 5658 5660 5661 5664 5668 5668 5673 5677 5679 5683 5686 5692 5706 5710 5716 5718 5728 5738 5745 5750 5752 5757 5759 5760 5760
5654 5655 5646 5642 5639 5648 5651 5648 5646 5638 5634 5635 5635 5636 5633 5634 5640 5644 5646 5647 5650 5651 5653 5655 5656 5657 5662 5668 5670 5671 5680 5688 5695 5703 5707 5717 5727 5734 5737 5740 5745 5746 5749 5751
5656 5652 5638 5635 5644 5642 5642 5641 5637 5636 5631 5630 5629 5629 5631 5632 5636 5638 5642 5642 5642 5644 5643 5644 5645 5647 5651 5658 5660 5665 5668 5673 5681 5692 5700 5708 5716 5722 5724 5731 5741 5748 5741 5739
5644 5643 5632 5625 5632 5632 5635 5634 5633 5632 5630 5628 5628 5626 5624 5624 5626 5628 5631 5634 5638 5639 5639 5639 5639 5642 5645 5651 5654 5654 5659 5662 5670 5680 5692 5700 5706 5711 5714 5718 5722 5733 5729 5726
5637 5632 5621 5615 5628 5625 5628 5636 5633 5628 5631 5631 5626 5626 5623 5619 5618 5619 5620 5623 5626 5631 5633 5631 5634 5637 5642 5645 5650 5652 5651 5655 5661 5670 5682 5692 5699 5703 5705 5707 5709 5720 5730 5733